Flag for Netherlands Weather past 2 weeks in Emmen, Netherlands

Now
48 °F

Cool.


Feels Like: 45 °F
Forecast: 46 / 57 °F
Wind: 6 mph from West

Location: Meppen

Current Time: Oct 22, 2014 at 3:40:36 AM

Latest Report: Oct 22, 2014 at 3:00 AM


Visibility: 6 mi

Pressure: 29.71 "Hg

Humidity: 87%

Dew point: 44 °F

Location of EmmenLocation

Historic Weather in Emmen — Graph

°F

Emmen temperature yesterday

Maximum temperature yesterday: 55 °F (at 12:00 AM)
Minimum temperature yesterday: 48 °F (at 10:00 PM)
Average temperature yesterday: 53 °F

Past Weeks' High & Low Weather Summary

 TemperatureHumidityPressure
High72 °F (Oct 19, 1:00 PM)96% (Oct 11, 1:00 AM)30.09 "Hg (Oct 11, 1:00 AM)
Low43 °F (Oct 11, 7:00 AM)58% (Oct 14, 2:00 PM)29.38 "Hg (Oct 21, 4:00 PM)
Average56 °F84%29.78 "Hg
* Reported Oct 7 1:00 AM — Oct 22 1:00 AM, Emmen, Weather by CustomWeather, © 2014

Note: Actual official high and low records may vary slightly from our data, if they occured in-between our weather recording intervals... More about our weather records

Advertising

Emmen weather history for previous 24 hours

 ConditionsComfort  
Time TempWeatherWind HumidityBarometerVisibility
1:00 AM
Oct 22
46 °FCool.6 mph90%29.65 "Hg2 mi
12:00 AM47 °FCool.6 mph84%29.63 "Hg7 mi
11:00 PM
Oct 21
N/APassing clouds.1 mphN/AN/A3 mi
10:00 PM48 °FCool.6 mph82%29.57 "Hg9 mi
9:00 PM48 °FCool.6 mph84%29.53 "Hg8 mi
7:00 PM50 °FCool.6 mph87%29.47 "Hg8 mi
6:00 PM51 °FCool.5 mph88%29.44 "Hg9 mi
5:00 PMN/APassing clouds.6 mphN/AN/A2 mi
4:00 PM53 °FRain. Low clouds.6 mph92%29.38 "Hg4 mi
3:00 PM53 °FDrizzle. Low clouds.7 mph91%29.44 "Hg2 mi
2:00 PM53 °FRain. Overcast.7 mph90%29.47 "Hg4 mi
1:00 PM54 °FRain. Overcast.6 mph89%29.53 "Hg10 mi
12:00 PM53 °FDrizzle. Overcast.6 mph90%29.58 "Hg3 mi
10:00 AM54 °FOvercast.5 mph88%29.66 "Hg14 mi
9:00 AM53 °FOvercast.5 mph89%29.69 "Hg9 mi
7:00 AM53 °FOvercast.5 mph91%29.73 "Hg11 mi
6:00 AM53 °FLow clouds.3 mph93%29.75 "Hg11 mi
4:00 AM54 °FCool.3 mph92%29.81 "Hg2 mi
3:00 AM54 °FCool.5 mph92%29.83 "Hg2 mi
Weather by CustomWeather, © 2014

See weather overviewHow to use our weather pages